Waarnemingen

Advertentie
Mijn weer
Salon, Frankrijk (7648): temperatuur & dauwpunt: 17.07.2017 10:00:00 - 23.07.2017 10:00:00 (CEST)Salon, Frankrijk (7648): temperatuur 5cm: 17.07.2017 10:00:00 - 23.07.2017 10:00:00 (CEST)Salon, Frankrijk (7648): windsnelheid & windstoten: 17.07.2017 10:00:00 - 23.07.2017 10:00:00 (CEST)Salon, Frankrijk (7648): windrichting: 17.07.2017 10:00:00 - 23.07.2017 10:00:00 (CEST)Salon, Frankrijk (7648): luchtdruk: 17.07.2017 10:00:00 - 23.07.2017 10:00:00 (CEST)Salon, Frankrijk (7648): zicht: 17.07.2017 10:00:00 - 23.07.2017 10:00:00 (CEST)Salon, Frankrijk (7648): neerslag: 17.07.2017 10:00:00 - 23.07.2017 10:00:00 (CEST)
Datum & Tijd tt [°C] td [°C] tt 5cm [°C] ff [km/u] ff [kn] fx [km/u] fx [kn] dd ppp [hPa] vv [km] rr [mm]
23.07.2017 10:00:00 27,2 16,5 30,1 23 12 36 20 NNW 1016,8 34 0,0
23.07.2017 09:00:00 24,4 19,2 25,6 5 3 13 7 NW 1017,3 19 0,0
23.07.2017 08:00:00 22,6 19,6 20,6 10 5 15 8 NNW 1017,2 13 0,0
23.07.2017 07:00:00 20,1 18,6 17,2 2 1 5 3 WNW 1017,1 6 0,0
23.07.2017 06:00:00 19,1 17,1 17,6 0 0 5 3 N 1017,1 8 0,0
23.07.2017 05:00:00 20,0 18,3 18,7 0 0 7 4 N 1016,8 11 0,0
23.07.2017 04:00:00 19,8 18,3 18,5 5 3 6 3 NO 1017,0 10 0,0
23.07.2017 03:00:00 20,0 18,3 19,1 4 2 7 4 ONO 1017,2 11 0,0
23.07.2017 02:00:00 20,8 18,7 19,3 4 2 9 5 ONO 1017,4 13 0,0
23.07.2017 01:00:00 20,5 18,6 19,3 5 3 10 5 ONO 1017,3 12 0,0
23.07.2017 00:00:00 21,9 19,3 19,9 0 0 4 2 N 1017,3 10 0,0
22.07.2017 23:00:00 22,9 19,1 21,4 2 1 10 5 WNW 1016,5 15 0,0
22.07.2017 22:00:00 24,1 19,6 22,8 5 3 15 8 Z 1015,7 22 0,0
22.07.2017 21:00:00 25,4 19,5 25,3 9 5 18 10 Z 1014,9 29 0,0
22.07.2017 20:00:00 26,2 18,6 26,9 8 4 21 11 ZZW 1014,3 28 0,0
22.07.2017 19:00:00 27,5 19,3 29,7 13 7 25 13 ZZW 1014,2 20 0,0
22.07.2017 18:00:00 27,7 19,5 32,2 16 9 32 17 ZZW 1014,3 14 0,0
22.07.2017 17:00:00 28,2 19,4 32,7 16 9 32 17 ZZW 1014,5 15 0,0
22.07.2017 16:00:00 28,6 19,5 35,2 18 10 35 19 ZW 1014,4 17 0,0
22.07.2017 15:00:00 28,9 19,2 33,7 19 10 35 19 ZZW 1014,1 22 0,0
22.07.2017 14:00:00 29,7 19,1 34,0 16 9 28 15 ZZW 1014,0 27 0,0
22.07.2017 13:00:00 29,9 17,7 35,4 13 7 26 14 Z 1013,9 24 0,0
22.07.2017 12:00:00 29,3 16,8 34,6 15 8 23 13 ZW 1013,9 17 0,0
22.07.2017 11:00:00 28,7 17,2 34,9 3 2 11 6 W 1014,0 27 0,0
22.07.2017 10:00:00 27,3 19,1 31,1 4 2 13 7 ZZW 1014,0 13 0,0
22.07.2017 09:00:00 25,3 18,5 26,0 4 2 10 5 NW 1014,0 20 0,0
22.07.2017 08:00:00 21,5 18,3 19,0 4 2 10 5 N 1013,5 9 0,0
22.07.2017 07:00:00 18,6 17,6 16,2 3 2 10 5 NO 1013,7 10 0,0
22.07.2017 06:00:00 18,3 17,3 16,1 0 0 3 2 N 1013,6 7 0,0
22.07.2017 05:00:00 18,8 17,6 17,0 2 1 4 2 NNO 1013,5 9 0,0
22.07.2017 04:00:00 18,7 17,4 17,2 3 1 5 3 NO 1013,3 11 0,0
22.07.2017 03:00:00 19,3 17,8 17,3 2 1 5 3 NO 1013,2 13 0,0
22.07.2017 02:00:00 19,6 17,7 18,1 0 0 5 3 N 1013,1 15 0,0
22.07.2017 01:00:00 20,5 18,4 18,8 0 0 3 2 N 1013,0 8 0,0
22.07.2017 00:00:00 21,5 19,2 19,6 0 0 3 2 N 1012,7 9 0,0
21.07.2017 23:00:00 23,7 20,4 22,6 3 2 10 6 ZZW 1012,3 23 0,0
21.07.2017 22:00:00 24,9 20,2 24,0 9 5 13 7 ZW 1011,9 30 0,0
21.07.2017 21:00:00 26,6 18,7 26,0 4 2 12 7 W 1010,9 24 0,0
21.07.2017 20:00:00 28,3 17,5 31,5 8 5 16 9 WZW 1010,7 47 0,0
21.07.2017 19:00:00 28,7 15,6 33,5 11 6 19 10 ZW 1010,5 39 0,0
21.07.2017 18:00:00 27,7 19,2 30,5 9 5 26 14 ZZW 1010,1 28 0,0
21.07.2017 17:00:00 28,0 18,4 30,4 16 9 32 17 Z 1011,2 19 0,0
21.07.2017 16:00:00 28,2 17,4 33,3 19 11 38 20 ZZW 1011,3 21 0,0
21.07.2017 15:00:00 28,2 18,3 31,6 24 13 39 21 ZW 1011,5 26 0,0
21.07.2017 14:00:00 30,0 15,3 34,4 20 11 29 16 ZZW 1011,1 30 0,0
21.07.2017 13:00:00 29,7 16,1 33,1 15 8 25 13 ZW 1011,3 10 0,0
21.07.2017 12:00:00 29,1 15,2 33,0 11 6 22 12 ZW 1011,5 37 0,0
21.07.2017 11:00:00 28,6 14,8 34,2 5 3 15 8 NNW 1011,7 49 0,0
21.07.2017 10:00:00 27,3 15,6 27,1 4 2 11 6 NW 1011,9 33 0,0
21.07.2017 09:00:00 23,3 15,6 21,0 10 5 13 7 ONO 1011,7 47 0,0
21.07.2017 08:00:00 19,9 14,7 17,6 5 3 9 5 ONO 1011,5 31 0,0
21.07.2017 07:00:00 17,2 13,3 14,4 2 1 5 3 ZW 1011,4 41 0,0
21.07.2017 06:00:00 16,3 13,4 14,4 3 2 7 4 NO 1011,3 29 0,0
21.07.2017 05:00:00 17,2 13,9 15,4 6 3 8 5 N 1011,1 31 0,0
21.07.2017 04:00:00 17,6 14,3 16,1 0 0 8 4 N 1011,4 27 0,0
21.07.2017 03:00:00 18,2 14,9 16,9 5 3 8 4 NO 1011,8 28 0,0
21.07.2017 02:00:00 18,4 15,8 16,3 4 2 11 6 NO 1012,1 31 0,0
21.07.2017 01:00:00 18,8 15,5 16,1 0 0 6 3 N 1012,4 27 0,0
21.07.2017 00:00:00 19,5 16,0 17,6 7 4 10 5 NNO 1012,6 34 0,0
20.07.2017 23:00:00 20,2 16,6 18,2 6 4 8 5 NO 1012,7 33 0,0
20.07.2017 22:00:00 22,5 16,8 20,4 0 0 4 2 N 1012,4 36 0,0
20.07.2017 21:00:00 25,6 15,3 24,8 5 3 16 9 ZZW 1012,1 45 0,0
20.07.2017 20:00:00 26,6 15,9 27,9 9 5 23 13 ZZW 1011,9 46 0,0
20.07.2017 19:00:00 27,0 16,6 26,8 15 8 23 12 ZZW 1012,0 43 0,0
20.07.2017 18:00:00 24,4 19,7 21,2 8 4 42 23 Z 1012,4 20 1,4
20.07.2017 17:00:00 28,6 15,2 30,6 20 11 37 20 ZZW 1012,1 51 0,0
20.07.2017 16:00:00 31,7 12,0 36,4 13 7 24 13 W 1012,1 57 0,0
20.07.2017 15:00:00 31,8 12,1 38,7 12 7 23 12 NW 1012,2 60 0,0
20.07.2017 14:00:00 30,5 12,9 32,6 15 8 26 14 NW 1012,9 60 0,0
20.07.2017 13:00:00 30,1 13,4 35,9 16 8 27 15 NW 1013,4 29 0,0
20.07.2017 12:00:00 28,5 16,1 31,3 12 7 23 13 NW 1013,6 21 0,0
20.07.2017 11:00:00 26,4 16,0 29,7 14 7 26 14 NNW 1013,8 21 0,0
20.07.2017 10:00:00 24,5 17,2 22,5 13 7 23 13 NNW 1014,1 22 0,0
20.07.2017 09:00:00 24,0 14,4 23,0 6 3 32 17 NNW 1014,0 16 0,0
20.07.2017 08:00:00 23,4 14,7 20,5 17 9 28 15 O 1013,2 60 0,0
20.07.2017 07:00:00 21,7 14,8 20,4 10 6 26 14 NO 1015,0 57 0,0
20.07.2017 06:00:00 21,7 15,8 21,0 16 8 36 19 NNO 1015,8 52 0,0
20.07.2017 05:00:00 21,7 19,1 20,7 10 6 28 15 N 1016,4 23 0,0
20.07.2017 04:00:00 22,0 17,4 20,7 16 9 24 13 NNW 1016,4 44 0,0
20.07.2017 03:00:00 21,6 16,8 20,0 4 2 16 8 WZW 1015,2 34 0,0
20.07.2017 02:00:00 20,9 17,7 20,0 2 1 13 7 O 1014,2 31 0,0
20.07.2017 01:00:00 20,7 18,5 19,2 5 3 9 5 ONO 1014,4 29 0,0
20.07.2017 00:00:00 20,9 18,1 18,9 5 3 8 4 OZO 1014,7 27 0,0
19.07.2017 23:00:00 22,1 19,1 20,3 0 0 8 5 N 1014,9 24 0,0
19.07.2017 22:00:00 23,3 20,1 22,0 3 2 17 9 Z 1015,1 33 0,0
19.07.2017 21:00:00 24,0 19,5 23,8 4 2 24 13 ZZW 1015,2 45 0,0
19.07.2017 20:00:00 24,8 18,5 25,1 16 9 33 18 ZW 1015,4 55 0,0
19.07.2017 19:00:00 26,9 16,2 30,5 22 12 36 19 ZZW 1015,0 26 0,0
19.07.2017 18:00:00 28,5 14,3 32,3 20 11 34 18 ZZW 1014,6 25 0,0
19.07.2017 17:00:00 29,6 11,2 33,5 21 11 32 17 ZZW 1014,7 27 0,0
19.07.2017 16:00:00 30,4 11,9 33,7 22 12 34 18 ZZW 1015,2 20 0,0
19.07.2017 15:00:00 29,2 12,6 31,4 16 9 31 17 ZZW 1015,5 36 0,0
19.07.2017 14:00:00 31,1 12,0 33,5 16 9 34 18 Z 1016,0 38 0,0
19.07.2017 13:00:00 28,2 11,7 31,4 16 9 27 15 ZZO 1016,2 46 0,0
19.07.2017 12:00:00 28,2 12,1 32,1 13 7 27 15 ZZO 1017,2 46 0,0
19.07.2017 11:00:00 27,9 12,7 28,4 14 7 23 13 ZZO 1017,6 52 0,0
19.07.2017 10:00:00 25,6 11,4 27,3 8 5 16 9 Z 1017,6 54 0,0
19.07.2017 09:00:00 24,4 11,7 25,7 0 0 7 4 N 1017,3 41 0,0
19.07.2017 08:00:00 21,4 11,7 16,4 3 2 13 7 NO 1016,9 37 0,0
19.07.2017 07:00:00 17,7 11,0 14,6 7 4 11 6 ONO 1016,8 44 0,0
19.07.2017 06:00:00 17,4 10,5 15,2 4 2 9 5 NO 1017,0 44 0,0
19.07.2017 05:00:00 16,5 10,6 14,8 3 2 11 6 NO 1017,0 19 0,0
19.07.2017 04:00:00 16,3 10,6 13,9 9 5 10 6 NNO 1017,6 52 0,0
19.07.2017 03:00:00 15,7 10,2 13,7 3 2 8 5 ONO 1017,4 20 0,0
19.07.2017 02:00:00 17,4 10,3 14,5 2 1 7 4 NNO 1018,0 47 0,0
19.07.2017 01:00:00 17,9 10,8 15,3 2 1 5 3 N 1017,8 47 0,0
19.07.2017 00:00:00 19,4 11,4 16,8 0 0 8 4 N 1017,8 60 0,0
18.07.2017 23:00:00 20,2 11,9 17,4 4 2 11 6 ZO 1017,4 60 0,0
18.07.2017 22:00:00 23,0 11,7 20,4 3 1 8 4 ZW 1017,7 60 0,0
18.07.2017 21:00:00 25,1 10,9 24,4 5 3 19 11 ZW 1017,1 60 0,0
18.07.2017 20:00:00 26,5 8,9 28,1 12 6 27 14 ZZW 1017,1 51 0,0
18.07.2017 19:00:00 27,9 8,7 32,1 14 8 30 16 Z 1017,2 30 0,0
18.07.2017 18:00:00 28,6 10,3 33,9 16 9 36 20 ZZW 1017,2 26 0,0
18.07.2017 17:00:00 29,2 10,3 35,1 18 10 39 21 ZZW 1017,5 28 0,0
18.07.2017 16:00:00 30,0 10,5 35,9 22 12 39 21 ZZW 1017,5 33 0,0
18.07.2017 15:00:00 29,7 9,8 36,0 24 13 35 19 ZZW 1017,9 40 0,0
18.07.2017 14:00:00 30,0 10,0 37,0 19 11 35 19 ZZW 1018,1 54 0,0
18.07.2017 13:00:00 29,8 9,3 35,5 16 9 29 16 Z 1018,3 60 0,0
18.07.2017 12:00:00 28,5 7,7 34,1 13 7 24 13 Z 1018,7 53 0,0
18.07.2017 11:00:00 28,2 7,4 33,6 15 8 30 16 ZZW 1019,0 58 0,0
18.07.2017 10:00:00 28,0 8,3 27,2 8 4 17 9 ZZO 1019,0 46 0,0
18.07.2017 09:00:00 24,2 10,8 24,4 0 0 7 4 N 1019,0 32 0,0
18.07.2017 08:00:00 21,0 11,3 17,1 3 2 9 5 NNO 1019,0 37 0,0
18.07.2017 07:00:00 16,7 9,4 13,1 0 0 4 2 N 1018,9 57 0,0
18.07.2017 06:00:00 16,2 9,1 12,5 4 2 9 5 NO 1018,9 53 0,0
18.07.2017 05:00:00 15,1 9,7 12,8 4 2 7 4 ONO 1019,0 48 0,0
18.07.2017 04:00:00 15,3 10,7 12,4 5 3 7 4 NNO 1019,2 28 0,0
18.07.2017 03:00:00 16,2 10,9 14,2 4 2 7 4 NO 1019,3 31 0,0
18.07.2017 02:00:00 16,8 11,1 14,6 3 2 10 6 NO 1019,1 9 0,0
18.07.2017 01:00:00 17,1 12,2 14,9 4 2 6 3 O 1019,4 34 0,0
18.07.2017 00:00:00 17,8 12,3 16,1 4 2 9 5 ONO 1019,7 60 0,0
17.07.2017 23:00:00 20,2 14,6 17,2 2 1 4 2 ZW 1019,7 53 0,0
17.07.2017 22:00:00 22,7 14,5 19,8 3 2 5 3 ZW 1019,5 48 0,0
17.07.2017 21:00:00 24,3 14,1 22,9 4 2 16 9 ZZO 1018,9 53 0,0
17.07.2017 20:00:00 26,3 13,1 28,6 11 6 25 14 ZW 1019,1 20 0,0
17.07.2017 19:00:00 27,4 11,8 32,0 19 10 33 18 ZW 1019,3 24 0,0
17.07.2017 18:00:00 28,2 12,5 33,3 17 9 32 17 ZZW 1019,2 19 0,0
17.07.2017 17:00:00 29,0 7,5 35,5 20 11 36 19 Z 1019,2 19 0,0
17.07.2017 16:00:00 29,7 8,7 36,3 23 13 38 20 Z 1019,4 22 0,0
17.07.2017 15:00:00 30,0 9,0 37,0 26 14 40 21 Z 1019,9 24 0,0
17.07.2017 14:00:00 30,8 7,9 37,9 23 12 37 20 Z 1020,2 33 0,0
17.07.2017 13:00:00 30,5 8,2 36,6 19 10 31 17 ZZW 1020,3 41 0,0
17.07.2017 12:00:00 30,1 9,0 36,2 13 7 24 13 ZZW 1020,5 50 0,0
17.07.2017 11:00:00 30,3 9,8 35,7 9 5 21 11 ZZO 1020,9 30 0,0
17.07.2017 10:00:00 28,9 9,6 33,1 11 6 24 13 ZO 1021,1 30 0,0

tt = temperatuur
td = dauwpunt
tt 5cm = temperatuur 5cm
ff = windsnelheid
fx = windstoten
dd = windrichting
ppp = luchtdruk
vv = zicht
rr = neerslag

Weerstations in de omgeving